Year,Month,Day,Hour,Minute,Value (Times are PST for temperature in C)
2009,05,28,00,00,10.80
2009,05,28,00,01,10.80
2009,05,28,00,02,10.90
2009,05,28,00,03,10.90
2009,05,28,00,04,10.90
2009,05,28,00,05,11.00
2009,05,28,00,06,11.00
2009,05,28,00,07,11.00
2009,05,28,00,08,11.10
2009,05,28,00,09,11.10
2009,05,28,00,10,11.10
2009,05,28,00,11,11.10
2009,05,28,00,12,11.10
2009,05,28,00,13,11.10
2009,05,28,00,14,11.10
2009,05,28,00,15,11.20
2009,05,28,00,16,11.20
2009,05,28,00,17,11.20
2009,05,28,00,18,11.20
2009,05,28,00,19,11.20
2009,05,28,00,20,11.20
2009,05,28,00,21,11.20
2009,05,28,00,22,11.30
2009,05,28,00,23,11.30
2009,05,28,00,24,11.30
2009,05,28,00,25,11.30
2009,05,28,00,26,11.40
2009,05,28,00,27,11.40
2009,05,28,00,28,11.40
2009,05,28,00,29,11.40
2009,05,28,00,30,11.40
2009,05,28,00,31,11.40
2009,05,28,00,32,11.40
2009,05,28,00,33,11.30
2009,05,28,00,34,11.30
2009,05,28,00,35,11.30
2009,05,28,00,36,11.30
2009,05,28,00,37,11.30
2009,05,28,00,38,11.20
2009,05,28,00,39,11.20
2009,05,28,00,40,11.20
2009,05,28,00,41,11.20
2009,05,28,00,42,11.20
2009,05,28,00,43,11.20
2009,05,28,00,44,11.20
2009,05,28,00,45,11.20
2009,05,28,00,46,11.10
2009,05,28,00,47,11.10
2009,05,28,00,48,11.10
2009,05,28,00,49,11.10
2009,05,28,00,50,11.10
2009,05,28,00,51,11.10
2009,05,28,00,52,11.10
2009,05,28,00,53,11.10
2009,05,28,00,54,11.00
2009,05,28,00,55,11.00
2009,05,28,00,56,10.90
2009,05,28,00,57,10.80
2009,05,28,00,58,10.80
2009,05,28,00,59,10.70
2009,05,28,01,00,10.70
2009,05,28,01,01,10.60
2009,05,28,01,02,10.50
2009,05,28,01,03,10.50
2009,05,28,01,04,10.40
2009,05,28,01,05,10.40
2009,05,28,01,06,10.40
2009,05,28,01,07,10.30
2009,05,28,01,08,10.30
2009,05,28,01,09,10.20
2009,05,28,01,10,10.20
2009,05,28,01,11,10.20
2009,05,28,01,12,10.20
2009,05,28,01,13,10.20
2009,05,28,01,14,10.20
2009,05,28,01,15,10.20
2009,05,28,01,16,10.20
2009,05,28,01,17,10.20
2009,05,28,01,18,10.20
2009,05,28,01,19,10.20
2009,05,28,01,20,10.20
2009,05,28,01,21,10.20
2009,05,28,01,22,10.20
2009,05,28,01,23,10.20
2009,05,28,01,24,10.20
2009,05,28,01,25,10.20
2009,05,28,01,26,10.20
2009,05,28,01,27,10.20
2009,05,28,01,28,10.30
2009,05,28,01,29,10.30
2009,05,28,01,30,10.30
2009,05,28,01,31,10.30
2009,05,28,01,32,10.30
2009,05,28,01,33,10.30
2009,05,28,01,34,10.30
2009,05,28,01,35,10.20
2009,05,28,01,36,10.20
2009,05,28,01,37,10.10
2009,05,28,01,38,10.10
2009,05,28,01,39,10.10
2009,05,28,01,40,10.00
2009,05,28,01,41,10.00
2009,05,28,01,42,10.00
2009,05,28,01,43,10.00
2009,05,28,01,44,9.90
2009,05,28,01,45,10.00
2009,05,28,01,46,10.00
2009,05,28,01,47,10.00
2009,05,28,01,48,10.00
2009,05,28,01,49,10.00
2009,05,28,01,50,10.00
2009,05,28,01,51,9.90
2009,05,28,01,52,9.90
2009,05,28,01,53,9.90
2009,05,28,01,54,9.90
2009,05,28,01,55,9.90
2009,05,28,01,56,9.80
2009,05,28,01,57,9.80
2009,05,28,01,58,9.90
2009,05,28,01,59,9.90
2009,05,28,02,00,9.90
2009,05,28,02,01,9.90
2009,05,28,02,02,10.00
2009,05,28,02,03,10.00
2009,05,28,02,04,10.10
2009,05,28,02,05,10.20
2009,05,28,02,06,10.20
2009,05,28,02,07,10.20
2009,05,28,02,08,10.30
2009,05,28,02,09,10.30
2009,05,28,02,10,10.30
2009,05,28,02,11,10.40
2009,05,28,02,12,10.40
2009,05,28,02,13,10.50
2009,05,28,02,14,10.50
2009,05,28,02,15,10.60
2009,05,28,02,16,10.60
2009,05,28,02,17,10.60
2009,05,28,02,18,10.60
2009,05,28,02,19,10.60
2009,05,28,02,20,10.60
2009,05,28,02,21,10.60
2009,05,28,02,22,10.60
2009,05,28,02,23,10.60
2009,05,28,02,24,10.60
2009,05,28,02,25,10.60
2009,05,28,02,26,10.60
2009,05,28,02,27,10.60
2009,05,28,02,28,10.60
2009,05,28,02,29,10.60
2009,05,28,02,30,10.60
2009,05,28,02,31,10.60
2009,05,28,02,32,10.60
2009,05,28,02,33,10.60
2009,05,28,02,34,10.60
2009,05,28,02,35,10.70
2009,05,28,02,36,10.70
2009,05,28,02,37,10.70
2009,05,28,02,38,10.70
2009,05,28,02,39,10.70
2009,05,28,02,40,10.70
2009,05,28,02,41,10.70
2009,05,28,02,42,10.70
2009,05,28,02,43,10.60
2009,05,28,02,44,10.60
2009,05,28,02,45,10.50
2009,05,28,02,46,10.50
2009,05,28,02,47,10.40
2009,05,28,02,48,10.30
2009,05,28,02,49,10.30
2009,05,28,02,50,10.30
2009,05,28,02,51,10.30
2009,05,28,02,52,10.30
2009,05,28,02,53,10.40
2009,05,28,02,54,10.40
2009,05,28,02,55,10.40
2009,05,28,02,56,10.40
2009,05,28,02,57,10.40
2009,05,28,02,58,10.40
2009,05,28,02,59,10.30
2009,05,28,03,00,10.30
2009,05,28,03,01,10.20
2009,05,28,03,02,10.20
2009,05,28,03,03,10.20
2009,05,28,03,04,10.20
2009,05,28,03,05,10.10
2009,05,28,03,06,10.10
2009,05,28,03,07,10.10
2009,05,28,03,08,10.10
2009,05,28,03,09,10.10
2009,05,28,03,10,10.10
2009,05,28,03,11,10.00
2009,05,28,03,12,9.90
2009,05,28,03,13,9.80
2009,05,28,03,14,9.70
2009,05,28,03,15,9.60
2009,05,28,03,16,9.50
2009,05,28,03,17,9.40
2009,05,28,03,18,9.30
2009,05,28,03,19,9.20
2009,05,28,03,20,9.10
2009,05,28,03,21,9.00
2009,05,28,03,22,9.00
2009,05,28,03,23,9.00
2009,05,28,03,24,8.90
2009,05,28,03,25,8.90
2009,05,28,03,26,8.90
2009,05,28,03,27,8.90
2009,05,28,03,28,8.90
2009,05,28,03,29,8.90
2009,05,28,03,30,8.90
2009,05,28,03,31,8.90
2009,05,28,03,32,8.90
2009,05,28,03,33,8.90
2009,05,28,03,34,9.00
2009,05,28,03,35,9.00
2009,05,28,03,36,9.00
2009,05,28,03,37,9.10
2009,05,28,03,38,9.10
2009,05,28,03,39,9.20
2009,05,28,03,40,9.20
2009,05,28,03,41,9.20
2009,05,28,03,42,9.20
2009,05,28,03,43,9.20
2009,05,28,03,44,9.20
2009,05,28,03,45,9.20
2009,05,28,03,46,9.30
2009,05,28,03,47,9.30
2009,05,28,03,48,9.30
2009,05,28,03,49,9.20
2009,05,28,03,50,9.20
2009,05,28,03,51,9.20
2009,05,28,03,52,9.10
2009,05,28,03,53,9.10
2009,05,28,03,54,9.10
2009,05,28,03,55,9.10
2009,05,28,03,56,9.10
2009,05,28,03,57,9.10
2009,05,28,03,58,9.10
2009,05,28,03,59,9.10
2009,05,28,04,00,9.10
2009,05,28,04,01,9.10
2009,05,28,04,02,9.10
2009,05,28,04,03,9.10
2009,05,28,04,04,9.10
2009,05,28,04,05,9.10
2009,05,28,04,06,9.10
2009,05,28,04,07,9.00
2009,05,28,04,08,9.00
2009,05,28,04,09,9.00
2009,05,28,04,10,9.00
2009,05,28,04,11,8.90
2009,05,28,04,12,9.00
2009,05,28,04,13,9.00
2009,05,28,04,14,9.00
2009,05,28,04,15,9.10
2009,05,28,04,16,9.10
2009,05,28,04,17,9.20
2009,05,28,04,18,9.20
2009,05,28,04,19,9.20
2009,05,28,04,20,9.20
2009,05,28,04,21,9.20
2009,05,28,04,22,9.20
2009,05,28,04,23,9.20
2009,05,28,04,24,9.20
2009,05,28,04,25,9.30
2009,05,28,04,26,9.30
2009,05,28,04,27,9.30
2009,05,28,04,28,9.40
2009,05,28,04,29,9.40
2009,05,28,04,30,9.50
2009,05,28,04,31,9.50
2009,05,28,04,32,9.50
2009,05,28,04,33,9.40
2009,05,28,04,34,9.40
2009,05,28,04,35,9.30
2009,05,28,04,36,9.30
2009,05,28,04,37,9.20
2009,05,28,04,38,9.20
2009,05,28,04,39,9.30
2009,05,28,04,40,9.30
2009,05,28,04,41,9.20
2009,05,28,04,42,9.20
2009,05,28,04,43,9.10
2009,05,28,04,44,9.10
2009,05,28,04,45,9.10
2009,05,28,04,46,9.00
2009,05,28,04,47,9.00
2009,05,28,04,48,9.00
2009,05,28,04,49,9.00
2009,05,28,04,50,9.00
2009,05,28,04,51,9.00
2009,05,28,04,52,8.90
2009,05,28,04,53,8.90
2009,05,28,04,54,8.90
2009,05,28,04,55,8.80
2009,05,28,04,56,8.80
2009,05,28,04,57,8.80
2009,05,28,04,58,8.80
2009,05,28,04,59,8.80
2009,05,28,05,00,8.80
2009,05,28,05,01,8.80
2009,05,28,05,02,8.80
2009,05,28,05,03,8.80
2009,05,28,05,04,8.80
2009,05,28,05,05,8.80
2009,05,28,05,06,8.80
2009,05,28,05,07,8.90
2009,05,28,05,08,8.90
2009,05,28,05,09,8.90
2009,05,28,05,10,8.90
2009,05,28,05,11,8.90
2009,05,28,05,12,8.90
2009,05,28,05,13,8.90
2009,05,28,05,14,8.90
2009,05,28,05,15,8.90
2009,05,28,05,16,8.90
2009,05,28,05,17,8.90
2009,05,28,05,18,8.90
2009,05,28,05,19,8.90
2009,05,28,05,20,8.90
2009,05,28,05,21,8.90
2009,05,28,05,22,8.90
2009,05,28,05,23,9.00
2009,05,28,05,24,9.00
2009,05,28,05,25,9.10
2009,05,28,05,26,9.10
2009,05,28,05,27,9.20
2009,05,28,05,28,9.20
2009,05,28,05,29,9.20
2009,05,28,05,30,9.20
2009,05,28,05,31,9.20
2009,05,28,05,32,9.20
2009,05,28,05,33,9.10
2009,05,28,05,34,9.10
2009,05,28,05,35,9.10
2009,05,28,05,36,9.10
2009,05,28,05,37,9.00
2009,05,28,05,38,8.90
2009,05,28,05,39,8.90
2009,05,28,05,40,8.80
2009,05,28,05,41,8.60
2009,05,28,05,42,8.60
2009,05,28,05,43,8.60
2009,05,28,05,44,8.70
2009,05,28,05,45,8.70
2009,05,28,05,46,8.70
2009,05,28,05,47,8.70
2009,05,28,05,48,8.80
2009,05,28,05,49,8.70
2009,05,28,05,50,8.70
2009,05,28,05,51,8.70
2009,05,28,05,52,8.70
2009,05,28,05,53,8.60
2009,05,28,05,54,8.60
2009,05,28,05,55,8.60
2009,05,28,05,56,8.50
2009,05,28,05,57,8.50
2009,05,28,05,58,8.50
2009,05,28,05,59,8.50
2009,05,28,06,00,8.50
2009,05,28,06,01,8.60
2009,05,28,06,02,8.60
2009,05,28,06,03,8.60
2009,05,28,06,04,8.60
2009,05,28,06,05,8.70
2009,05,28,06,06,8.70
2009,05,28,06,07,8.70
2009,05,28,06,08,8.70
2009,05,28,06,09,8.70
2009,05,28,06,10,8.80
2009,05,28,06,11,8.80
2009,05,28,06,12,8.80
2009,05,28,06,13,8.90
2009,05,28,06,14,9.00
2009,05,28,06,15,9.00
2009,05,28,06,16,9.10
2009,05,28,06,17,9.20
2009,05,28,06,18,9.20
2009,05,28,06,19,9.30
2009,05,28,06,20,9.30
2009,05,28,06,21,9.40
2009,05,28,06,22,9.40
2009,05,28,06,23,9.50
2009,05,28,06,24,9.60
2009,05,28,06,25,9.60
2009,05,28,06,26,9.70
2009,05,28,06,27,9.70
2009,05,28,06,28,9.80
2009,05,28,06,29,9.80
2009,05,28,06,30,9.80
2009,05,28,06,31,9.80
2009,05,28,06,32,9.90
2009,05,28,06,33,9.90
2009,05,28,06,34,9.90
2009,05,28,06,35,9.90
2009,05,28,06,36,10.00
2009,05,28,06,37,10.00
2009,05,28,06,38,10.00
2009,05,28,06,39,10.10
2009,05,28,06,40,10.10
2009,05,28,06,41,10.10
2009,05,28,06,42,10.10
2009,05,28,06,43,10.10
2009,05,28,06,44,10.10
2009,05,28,06,45,10.20
2009,05,28,06,46,10.20
2009,05,28,06,47,10.20
2009,05,28,06,48,10.20
2009,05,28,06,49,10.20
2009,05,28,06,50,10.20
2009,05,28,06,51,10.20
2009,05,28,06,52,10.20
2009,05,28,06,53,10.20
2009,05,28,06,54,10.20
2009,05,28,06,55,10.20
2009,05,28,06,56,10.30
2009,05,28,06,57,10.30
2009,05,28,06,58,10.30
2009,05,28,06,59,10.40
2009,05,28,07,00,10.40
2009,05,28,07,01,10.50
2009,05,28,07,02,10.50
2009,05,28,07,03,10.50
2009,05,28,07,04,10.60
2009,05,28,07,05,10.60
2009,05,28,07,06,10.70
2009,05,28,07,07,10.70
2009,05,28,07,08,10.70
2009,05,28,07,09,10.80
2009,05,28,07,10,10.80
2009,05,28,07,11,10.90
2009,05,28,07,12,11.00
2009,05,28,07,13,11.00
2009,05,28,07,14,11.10
2009,05,28,07,15,11.10
2009,05,28,07,16,11.10
2009,05,28,07,17,11.20
2009,05,28,07,18,11.20
2009,05,28,07,19,11.30
2009,05,28,07,20,11.30
2009,05,28,07,21,11.30
2009,05,28,07,22,11.30
2009,05,28,07,23,11.30
2009,05,28,07,24,11.40
2009,05,28,07,25,11.40
2009,05,28,07,26,11.40
2009,05,28,07,27,11.40
2009,05,28,07,28,11.40
2009,05,28,07,29,11.50
2009,05,28,07,30,11.50
2009,05,28,07,31,11.60
2009,05,28,07,32,11.60
2009,05,28,07,33,11.60
2009,05,28,07,34,11.70
2009,05,28,07,35,11.70
2009,05,28,07,36,11.70
2009,05,28,07,37,11.70
2009,05,28,07,38,11.70
2009,05,28,07,39,11.80
2009,05,28,07,40,11.80
2009,05,28,07,41,11.90
2009,05,28,07,42,11.90
2009,05,28,07,43,12.00
2009,05,28,07,44,12.10
2009,05,28,07,45,12.20
2009,05,28,07,46,12.30
2009,05,28,07,47,12.30
2009,05,28,07,48,12.40
2009,05,28,07,49,12.40
2009,05,28,07,50,12.40
2009,05,28,07,51,12.40
2009,05,28,07,52,12.40
2009,05,28,07,53,12.50
2009,05,28,07,54,12.50
2009,05,28,07,55,12.50
2009,05,28,07,56,12.50
2009,05,28,07,57,12.60
2009,05,28,07,58,12.60
2009,05,28,07,59,12.60
2009,05,28,08,00,12.70
2009,05,28,08,01,12.70
2009,05,28,08,02,12.70
2009,05,28,08,03,12.70
2009,05,28,08,04,12.70
2009,05,28,08,05,12.70
2009,05,28,08,06,12.80
2009,05,28,08,07,12.80
2009,05,28,08,08,12.90
2009,05,28,08,09,13.00
2009,05,28,08,10,13.10
2009,05,28,08,11,13.20
2009,05,28,08,12,13.30
2009,05,28,08,13,13.40
2009,05,28,08,14,13.60
2009,05,28,08,15,13.70
2009,05,28,08,16,13.70
2009,05,28,08,17,13.70
2009,05,28,08,18,13.80
2009,05,28,08,19,13.80
2009,05,28,08,20,13.90
2009,05,28,08,21,14.00
2009,05,28,08,22,14.00
2009,05,28,08,23,14.10
2009,05,28,08,24,14.20
2009,05,28,08,25,14.30
2009,05,28,08,26,14.30
2009,05,28,08,27,14.30
2009,05,28,08,28,14.30
2009,05,28,08,29,14.30
2009,05,28,08,30,14.30
2009,05,28,08,31,14.30
2009,05,28,08,32,14.20
2009,05,28,08,33,14.10
2009,05,28,08,34,14.10
2009,05,28,08,35,14.00
2009,05,28,08,36,14.00
2009,05,28,08,37,14.00
2009,05,28,08,38,14.00
2009,05,28,08,39,14.00
2009,05,28,08,40,14.10
2009,05,28,08,41,14.00
2009,05,28,08,42,14.00
2009,05,28,08,43,14.00
2009,05,28,08,44,13.90
2009,05,28,08,45,13.90
2009,05,28,08,46,13.80
2009,05,28,08,47,13.80
2009,05,28,08,48,13.80
2009,05,28,08,49,13.80
2009,05,28,08,50,13.80
2009,05,28,08,51,13.90
2009,05,28,08,52,13.90
2009,05,28,08,53,13.90
2009,05,28,08,54,13.90
2009,05,28,08,55,14.00
2009,05,28,08,56,14.00
2009,05,28,08,57,13.90
2009,05,28,08,58,13.90
2009,05,28,08,59,13.90
2009,05,28,09,00,13.90
2009,05,28,09,01,14.00
2009,05,28,09,02,14.00
2009,05,28,09,03,14.00
2009,05,28,09,04,14.00
2009,05,28,09,05,14.00
2009,05,28,09,06,13.90
2009,05,28,09,07,13.90
2009,05,28,09,08,13.80
2009,05,28,09,09,13.80
2009,05,28,09,10,13.80
2009,05,28,09,11,13.70
2009,05,28,09,12,13.70
2009,05,28,09,13,13.70
2009,05,28,09,14,13.80
2009,05,28,09,15,13.80
2009,05,28,09,16,13.80
2009,05,28,09,17,13.80
2009,05,28,09,18,13.80
2009,05,28,09,19,13.80
2009,05,28,09,20,13.70
2009,05,28,09,21,13.70
2009,05,28,09,22,13.70
2009,05,28,09,23,13.70
2009,05,28,09,24,13.80
2009,05,28,09,25,13.90
2009,05,28,09,26,13.90
2009,05,28,09,27,13.90
2009,05,28,09,28,13.90
2009,05,28,09,29,13.90
2009,05,28,09,30,13.90
2009,05,28,09,31,13.90
2009,05,28,09,32,13.90
2009,05,28,09,33,13.90
2009,05,28,09,34,14.00
2009,05,28,09,35,14.10
2009,05,28,09,36,14.20
2009,05,28,09,37,14.30
2009,05,28,09,38,14.40
2009,05,28,09,39,14.60
2009,05,28,09,40,14.70
2009,05,28,09,41,14.70
2009,05,28,09,42,14.70
2009,05,28,09,43,14.70
2009,05,28,09,44,14.70
2009,05,28,09,45,14.60
2009,05,28,09,46,14.60
2009,05,28,09,47,14.60
2009,05,28,09,48,14.50
2009,05,28,09,49,14.50
2009,05,28,09,50,14.60
2009,05,28,09,51,14.60
2009,05,28,09,52,14.60
2009,05,28,09,53,14.60
2009,05,28,09,54,14.60
2009,05,28,09,55,14.60
2009,05,28,09,56,14.70
2009,05,28,09,57,14.70
2009,05,28,09,58,14.80
2009,05,28,09,59,14.90
2009,05,28,10,00,15.00
2009,05,28,10,01,15.00
2009,05,28,10,02,15.30
2009,05,28,10,03,15.50
2009,05,28,10,04,15.60
2009,05,28,10,05,15.70
2009,05,28,10,06,15.80
2009,05,28,10,07,15.80
2009,05,28,10,08,15.90
2009,05,28,10,09,16.00
2009,05,28,10,10,16.10
2009,05,28,10,11,16.10
2009,05,28,10,12,16.20
2009,05,28,10,13,16.20
2009,05,28,10,14,16.30
2009,05,28,10,15,16.20
2009,05,28,10,16,16.20
2009,05,28,10,17,16.10
2009,05,28,10,18,16.10
2009,05,28,10,19,16.10
2009,05,28,10,20,16.10
2009,05,28,10,21,16.10
2009,05,28,10,22,16.10
2009,05,28,10,23,16.10
2009,05,28,10,24,16.00
2009,05,28,10,25,16.00
2009,05,28,10,26,16.00
2009,05,28,10,27,16.00
2009,05,28,10,28,16.10
2009,05,28,10,29,16.20
2009,05,28,10,30,16.20
2009,05,28,10,31,16.20
2009,05,28,10,32,16.20
2009,05,28,10,33,16.30
2009,05,28,10,34,16.40
2009,05,28,10,35,16.40
2009,05,28,10,36,16.40
2009,05,28,10,37,16.40
2009,05,28,10,38,16.40
2009,05,28,10,39,16.50
2009,05,28,10,40,16.60
2009,05,28,10,41,16.70
2009,05,28,10,42,16.70
2009,05,28,10,43,16.70
2009,05,28,10,44,16.70
2009,05,28,10,45,16.70
2009,05,28,10,46,16.80
2009,05,28,10,47,16.80
2009,05,28,10,48,16.80
2009,05,28,10,49,16.80
2009,05,28,10,50,16.90
2009,05,28,10,51,16.90
2009,05,28,10,52,16.90
2009,05,28,10,53,16.80
2009,05,28,10,54,16.80
2009,05,28,10,55,16.80
2009,05,28,10,56,16.90
2009,05,28,10,57,16.70
2009,05,28,10,58,16.70
2009,05,28,10,59,16.70
2009,05,28,11,00,16.70
2009,05,28,11,01,16.70
2009,05,28,11,02,16.80
2009,05,28,11,03,16.90
2009,05,28,11,04,16.90
2009,05,28,11,05,16.90
2009,05,28,11,06,17.00
2009,05,28,11,07,17.00
2009,05,28,11,08,17.10
2009,05,28,11,09,17.20
2009,05,28,11,10,17.10
2009,05,28,11,11,17.10
2009,05,28,11,12,17.00
2009,05,28,11,13,16.90
2009,05,28,11,14,17.00
2009,05,28,11,15,17.00
2009,05,28,11,16,17.00
2009,05,28,11,17,16.90
2009,05,28,11,18,16.90
2009,05,28,11,19,17.00
2009,05,28,11,20,17.00
2009,05,28,11,21,17.00
2009,05,28,11,22,17.00
2009,05,28,11,23,17.10
2009,05,28,11,24,17.10
2009,05,28,11,25,17.10
2009,05,28,11,26,17.10
2009,05,28,11,27,17.10
2009,05,28,11,28,17.10
2009,05,28,11,29,17.10
2009,05,28,11,30,17.20
2009,05,28,11,31,17.20
2009,05,28,11,32,17.30
2009,05,28,11,33,17.30
2009,05,28,11,34,17.40
2009,05,28,11,35,17.40
2009,05,28,11,36,17.50
2009,05,28,11,37,17.50
2009,05,28,11,38,17.40
2009,05,28,11,39,17.40
2009,05,28,11,40,17.40
2009,05,28,11,41,17.40
2009,05,28,11,42,17.40
2009,05,28,11,43,17.40
2009,05,28,11,44,17.50
2009,05,28,11,45,17.60
2009,05,28,11,46,17.80
2009,05,28,11,47,17.90
2009,05,28,11,48,18.00
2009,05,28,11,49,18.20
2009,05,28,11,50,18.30
2009,05,28,11,51,18.30
2009,05,28,11,52,18.30
2009,05,28,11,53,18.30
2009,05,28,11,54,18.30
2009,05,28,11,55,18.40
2009,05,28,11,56,18.40
2009,05,28,11,57,18.30
2009,05,28,11,58,18.30
2009,05,28,11,59,18.30
2009,05,28,12,00,18.30
2009,05,28,12,01,18.40
2009,05,28,12,02,18.30
2009,05,28,12,03,18.30
2009,05,28,12,04,18.40
2009,05,28,12,05,18.50
2009,05,28,12,06,18.40
2009,05,28,12,07,18.20
2009,05,28,12,08,18.20
2009,05,28,12,09,18.30
2009,05,28,12,10,18.20
2009,05,28,12,11,18.20
2009,05,28,12,12,18.30
2009,05,28,12,13,18.30
2009,05,28,12,14,18.30
2009,05,28,12,15,18.30
2009,05,28,12,16,18.30
2009,05,28,12,17,18.40
2009,05,28,12,18,18.40
2009,05,28,12,19,18.50
2009,05,28,12,20,18.60
2009,05,28,12,21,18.70
2009,05,28,12,22,18.80
2009,05,28,12,23,18.90
2009,05,28,12,24,19.00
2009,05,28,12,25,19.10
2009,05,28,12,26,19.20
2009,05,28,12,27,19.30
2009,05,28,12,28,19.30
2009,05,28,12,29,19.30
2009,05,28,12,30,19.30
2009,05,28,12,31,19.20
2009,05,28,12,32,19.00
2009,05,28,12,33,18.90
2009,05,28,12,34,18.90
2009,05,28,12,35,18.90
2009,05,28,12,36,19.00
2009,05,28,12,37,19.10
2009,05,28,12,38,19.20
2009,05,28,12,39,19.20
2009,05,28,12,40,19.20
2009,05,28,12,41,19.20
2009,05,28,12,42,19.20
2009,05,28,12,43,19.30
2009,05,28,12,44,19.30
2009,05,28,12,45,19.20
2009,05,28,12,46,19.20
2009,05,28,12,47,19.10
2009,05,28,12,48,19.10
2009,05,28,12,49,19.10
2009,05,28,12,50,19.20
2009,05,28,12,51,19.20
2009,05,28,12,52,19.20
2009,05,28,12,53,19.30
2009,05,28,12,54,19.30
2009,05,28,12,55,19.30
2009,05,28,12,56,19.30
2009,05,28,12,57,19.30
2009,05,28,12,58,19.30
2009,05,28,12,59,19.30
2009,05,28,13,00,19.30
2009,05,28,13,01,19.20
2009,05,28,13,02,19.20
2009,05,28,13,03,19.10
2009,05,28,13,04,19.10
2009,05,28,13,05,19.10
2009,05,28,13,06,19.10
2009,05,28,13,07,19.00
2009,05,28,13,08,18.90
2009,05,28,13,09,18.70
2009,05,28,13,10,18.60
2009,05,28,13,11,18.40
2009,05,28,13,12,18.40
2009,05,28,13,13,18.50
2009,05,28,13,14,18.50
2009,05,28,13,15,18.40
2009,05,28,13,16,18.40
2009,05,28,13,17,18.40
2009,05,28,13,18,18.30
2009,05,28,13,19,18.20
2009,05,28,13,20,18.10
2009,05,28,13,21,18.00
2009,05,28,13,22,18.00
2009,05,28,13,23,17.90
2009,05,28,13,24,17.90
2009,05,28,13,25,17.80
2009,05,28,13,26,17.70
2009,05,28,13,27,17.70
2009,05,28,13,28,17.70
2009,05,28,13,29,17.70
2009,05,28,13,30,17.70
2009,05,28,13,31,17.70
2009,05,28,13,32,17.70
2009,05,28,13,33,17.70
2009,05,28,13,34,17.70
2009,05,28,13,35,17.70
2009,05,28,13,36,17.80
2009,05,28,13,37,17.80
2009,05,28,13,38,17.90
2009,05,28,13,39,18.00
2009,05,28,13,40,18.00
2009,05,28,13,41,18.20
2009,05,28,13,42,18.30
2009,05,28,13,43,18.40
2009,05,28,13,44,18.60
2009,05,28,13,45,18.80
2009,05,28,13,46,18.90
2009,05,28,13,47,19.00
2009,05,28,13,48,19.00
2009,05,28,13,49,18.90
2009,05,28,13,50,18.90
2009,05,28,13,51,19.00
2009,05,28,13,52,19.10
2009,05,28,13,53,19.20
2009,05,28,13,54,19.30
2009,05,28,13,55,19.50
2009,05,28,13,56,19.50
2009,05,28,13,57,19.60
2009,05,28,13,58,19.70
2009,05,28,13,59,19.80
2009,05,28,14,00,19.90
2009,05,28,14,01,19.90
2009,05,28,14,02,19.90
2009,05,28,14,03,19.80
2009,05,28,14,04,19.80
2009,05,28,14,05,19.80
2009,05,28,14,06,19.80
2009,05,28,14,07,19.90
2009,05,28,14,08,19.90
2009,05,28,14,09,19.80
2009,05,28,14,10,19.80
2009,05,28,14,11,19.70
2009,05,28,14,12,19.70
2009,05,28,14,13,19.70
2009,05,28,14,14,19.60
2009,05,28,14,15,19.60
2009,05,28,14,16,19.60
2009,05,28,14,17,19.60
2009,05,28,14,18,19.70
2009,05,28,14,19,19.80
2009,05,28,14,20,19.90
2009,05,28,14,21,20.00
2009,05,28,14,22,20.10
2009,05,28,14,23,20.20
2009,05,28,14,24,20.20
2009,05,28,14,25,20.20
2009,05,28,14,26,20.20
2009,05,28,14,27,20.20
2009,05,28,14,28,20.30
2009,05,28,14,29,20.40
2009,05,28,14,30,20.50
2009,05,28,14,31,20.60
2009,05,28,14,32,20.70
2009,05,28,14,33,20.70
2009,05,28,14,34,20.80
2009,05,28,14,35,20.90
2009,05,28,14,36,21.00
2009,05,28,14,37,21.10
2009,05,28,14,38,21.10
2009,05,28,14,39,21.10
2009,05,28,14,40,21.10
2009,05,28,14,41,21.10
2009,05,28,14,42,21.10
2009,05,28,14,43,21.10
2009,05,28,14,44,21.10
2009,05,28,14,45,20.90
2009,05,28,14,46,20.80
2009,05,28,14,47,20.60
2009,05,28,14,48,20.60
2009,05,28,14,49,20.70
2009,05,28,14,50,20.80
2009,05,28,14,51,20.80
2009,05,28,14,52,20.80
2009,05,28,14,53,20.80
2009,05,28,14,54,20.70
2009,05,28,14,55,20.70
2009,05,28,14,56,20.80
2009,05,28,14,57,20.80
2009,05,28,14,58,20.80
2009,05,28,14,59,20.90
2009,05,28,15,00,21.00
2009,05,28,15,01,21.10
2009,05,28,15,02,21.20
2009,05,28,15,03,21.20
2009,05,28,15,04,21.20
2009,05,28,15,05,21.20
2009,05,28,15,06,21.20
2009,05,28,15,07,21.20
2009,05,28,15,08,21.30
2009,05,28,15,09,21.40
2009,05,28,15,10,21.50
2009,05,28,15,11,21.60
2009,05,28,15,12,21.70
2009,05,28,15,13,21.70
2009,05,28,15,14,21.70
2009,05,28,15,15,21.70
2009,05,28,15,16,21.70
2009,05,28,15,17,21.80
2009,05,28,15,18,21.90
2009,05,28,15,19,21.90
2009,05,28,15,20,21.90
2009,05,28,15,21,21.80
2009,05,28,15,22,21.60
2009,05,28,15,23,21.40
2009,05,28,15,24,21.30
2009,05,28,15,25,21.30
2009,05,28,15,26,21.20
2009,05,28,15,27,21.20
2009,05,28,15,28,21.20
2009,05,28,15,29,21.30
2009,05,28,15,30,21.40
2009,05,28,15,31,21.50
2009,05,28,15,32,21.50
2009,05,28,15,33,21.50
2009,05,28,15,34,21.50
2009,05,28,15,35,21.50
2009,05,28,15,36,21.50
2009,05,28,15,37,21.50
2009,05,28,15,38,21.50
2009,05,28,15,39,21.60
2009,05,28,15,40,21.60
2009,05,28,15,41,21.60
2009,05,28,15,42,21.50
2009,05,28,15,43,21.40
2009,05,28,15,44,21.40
2009,05,28,15,45,21.40
2009,05,28,15,46,21.40
2009,05,28,15,47,21.40
2009,05,28,15,48,21.50
2009,05,28,15,49,21.60
2009,05,28,15,50,21.70
2009,05,28,15,51,21.70
2009,05,28,15,52,21.70
2009,05,28,15,53,21.70
2009,05,28,15,54,21.80
2009,05,28,15,55,21.90
2009,05,28,15,56,21.90
2009,05,28,15,57,22.00
2009,05,28,15,58,22.00
2009,05,28,15,59,22.10
2009,05,28,16,00,22.20
2009,05,28,16,01,22.30
2009,05,28,16,02,22.30
2009,05,28,16,03,22.20
2009,05,28,16,04,22.10
2009,05,28,16,05,22.10
2009,05,28,16,06,22.10
2009,05,28,16,07,22.20
2009,05,28,16,08,22.20
2009,05,28,16,09,22.10
2009,05,28,16,10,22.10
2009,05,28,16,11,22.10
2009,05,28,16,12,22.20
2009,05,28,16,13,22.20
2009,05,28,16,14,22.20
2009,05,28,16,15,22.20
2009,05,28,16,16,22.20
2009,05,28,16,17,22.20
2009,05,28,16,18,22.20
2009,05,28,16,19,22.30
2009,05,28,16,20,22.30
2009,05,28,16,21,22.30
2009,05,28,16,22,22.20
2009,05,28,16,23,22.20
2009,05,28,16,24,22.20
2009,05,28,16,25,22.30
2009,05,28,16,26,22.30
2009,05,28,16,27,22.40
2009,05,28,16,28,22.40
2009,05,28,16,29,22.50
2009,05,28,16,30,22.60
2009,05,28,16,31,22.60
2009,05,28,16,32,22.60
2009,05,28,16,33,22.60
2009,05,28,16,34,22.60
2009,05,28,16,35,22.50
2009,05,28,16,36,22.40
2009,05,28,16,37,22.30
2009,05,28,16,38,22.30
2009,05,28,16,39,22.30
2009,05,28,16,40,22.40
2009,05,28,16,41,22.40
2009,05,28,16,42,22.60
2009,05,28,16,43,22.70
2009,05,28,16,44,22.80
2009,05,28,16,45,22.80
2009,05,28,16,46,22.90
2009,05,28,16,47,22.80
2009,05,28,16,48,22.70
2009,05,28,16,49,22.50
2009,05,28,16,50,22.40
2009,05,28,16,51,22.30
2009,05,28,16,52,22.30
2009,05,28,16,53,22.30
2009,05,28,16,54,22.40
2009,05,28,16,55,22.40
2009,05,28,16,56,22.40
2009,05,28,16,57,22.30
2009,05,28,16,58,22.30
2009,05,28,16,59,22.20
2009,05,28,17,00,22.20
2009,05,28,17,01,22.10
2009,05,28,17,02,22.10
2009,05,28,17,03,22.00
2009,05,28,17,04,22.10
2009,05,28,17,05,22.10
2009,05,28,17,06,22.10
2009,05,28,17,07,22.20
2009,05,28,17,08,22.20
2009,05,28,17,09,22.10
2009,05,28,17,10,22.10
2009,05,28,17,11,22.20
2009,05,28,17,12,22.20
2009,05,28,17,13,22.20
2009,05,28,17,14,22.10
2009,05,28,17,15,22.10
2009,05,28,17,16,22.00
2009,05,28,17,17,22.10
2009,05,28,17,18,22.10
2009,05,28,17,19,22.00
2009,05,28,17,20,22.00
2009,05,28,17,21,22.00
2009,05,28,17,22,22.10
2009,05,28,17,23,22.20
2009,05,28,17,24,22.30
2009,05,28,17,25,22.40
2009,05,28,17,26,22.50
2009,05,28,17,27,22.50
2009,05,28,17,28,22.60